Location: *
(40.4270°N, 9.4940°E)
Time: 15:41:19
(UTC+02:00)

Okean 2 - Visible Passes

Search period start: 01 September 2014 00:00
Search period end: 11 September 2014 00:00
Orbit: 569 x 588 km, 82.5° (Epoch: 31 August)

Date Brightness Start Highest point End Pass type
(mag) Time Alt. Az. Time Alt. Az. Time Alt. Az.
08 Sep 6.7 05:35:10 10° ESE 05:37:02 13° E 05:38:55 10° ENE visible
09 Sep 6.5 05:38:48 10° SE 05:41:37 18° E 05:44:25 10° NE visible
10 Sep 6.0 05:42:50 10° SE 05:46:12 24° E 05:49:35 10° NE visible
